Wind_Speed
24 25 26 25 25 25 24 24 24 24 24 25 27 28 28 29 30 29 30 30 31 31 32 33 33 33 34 34 34 34 34 33 33 33 33 33 33 33 33 33 34 35 36 36
25 25 26 26 26 25 25 25 25 25 25 26 27 28 28 29 30 30 30 30 31 31 32 32 32 33 33 33 33 33 33 33 33 33 32 32 32 32 32 32 32 33 34 34
26 26 26 26 24 24 24 25 26 27 27 28 28 28 29 29 29 30 30 31 31 31 32 32 32 32 32 32 33 32 32 32 31 31 31 31 31 31 31 31 32 32 32 33
26 26 26 25 24 24 24 25 26 27 28 29 29 29 29 30 30 30 31 31 31 31 31 32 32 31 31 30 30 30 30 30 29 29 30 30 30 30 30 31 31 31 31 32
26 26 25 24 24 25 26 25 26 28 28 29 29 29 29 29 30 30 31 31 31 31 31 31 30 30 30 29 29 28 28 28 28 28 28 28 28 29 30 30 30 30 31 31
26 26 25 24 24 24 26 26 26 27 28 29 29 28 27 27 28 29 29 30 30 30 30 29 29 28 28 27 27 27 26 26 26 27 27 27 27 28 28 28 29 30 30 30
25 26 25 24 23 24 25 25 25 26 26 27 27 26 26 26 27 27 28 28 28 28 27 27 26 26 25 25 25 25 25 25 25 26 26 26 27 26 26 26 27 27 28 28
24 25 24 23 23 24 24 25 25 25 26 26 26 26 25 26 26 26 27 27 26 26 25 24 24 23 23 23 23 22 23 24 25 25 25 25 24 24 25 25 25 25 26 26
24 24 24 23 23 23 24 24 25 25 26 26 25 25 25 25 26 27 27 26 26 25 23 23 22 22 22 22 22 21 21 22 23 24 24 24 23 23 23 23 23 23 24 24
22 22 22 22 22 22 23 24 24 25 25 25 25 24 25 25 26 26 26 26 25 24 22 22 21 21 21 20 20 20 21 21 21 22 22 22 22 22 22 22 22 22 22 23
21 21 21 22 23 23 23 24 24 24 24 24 24 25 25 25 26 26 25 25 24 23 22 22 21 21 21 20 20 20 21 21 21 20 20 20 20 21 21 21 21 21 21 22
21 21 21 22 23 23 23 24 24 24 24 24 24 25 25 25 25 25 25 25 24 23 22 22 21 21 20 20 20 20 20 20 20 19 19 19 19 19 20 20 20 20 21 21
22 21 22 22 22 23 23 24 24 24 24 25 25 25 25 25 25 25 25 24 23 23 22 21 21 20 20 20 19 19 19 19 19 18 18 18 18 18 18 19 19 19 19 19
22 21 21 22 22 22 23 23 24 24 24 24 24 24 24 24 24 24 23 23 22 21 21 21 20 20 20 20 20 19 19 19 18 17 17 17 18 17 18 18 18 18 18 18
21 21 21 21 21 21 22 23 23 23 23 23 22 22 22 23 23 23 22 22 21 21 20 20 20 20 20 20 20 19 19 18 17 17 17 17 17 17 17 17 17 17 17 17
20 20 20 20 20 21 21 21 22 22 22 22 21 22 22 23 23 23 22 21 21 21 20 19 19 19 19 20 19 19 18 17 16 16 16 16 16 16 16 16 16 16 16 16
19 20 20 20 20 20 20 20 20 21 21 21 21 21 22 22 22 22 22 21 20 20 19 18 18 18 18 18 17 16 16 15 15 15 15 15 14 14 14 14 14 14 14 15
19 19 18 18 19 19 19 20 20 20 21 21 21 21 21 21 21 21 20 19 18 18 17 17 17 17 16 15 14 14 14 13 13 13 13 14 13 13 13 13 13 13 14 14
17 17 18 18 18 18 18 19 19 19 20 20 20 20 20 20 19 18 17 17 16 16 16 16 16 15 15 14 13 13 13 13 13 12 12 12 12 12 12 12 12 12 12 13
16 16 16 16 17 17 18 18 18 19 19 18 18 18 18 18 18 17 16 16 16 16 15 15 15 14 14 13 12 12 13 12 12 12 11 11 10 10 10 10 10 11 11 11
15 16 16 16 17 18 18 17 17 17 17 17 17 16 17 17 16 16 16 16 15 15 15 14 13 13 12 12 12 12 12 12 11 11 10 10 9 9 9 9 9 10 10 10
15 15 16 16 16 16 16 15 15 16 16 16 15 16 16 16 15 15 15 15 14 14 14 13 13 12 11 11 12 12 12 11 11 10 10 9 9 8 8 8 8 9 9 9
15 15 16 16 15 15 14 15 15 15 15 15 14 15 15 14 14 14 14 14 14 14 14 13 12 12 12 12 12 11 11 11 10 10 10 9 9 8 8 8 8 8 9 9
15 15 15 15 14 14 14 14 14 15 15 14 14 14 14 13 13 13 14 14 14 13 13 12 12 12 12 12 12 12 12 11 11 10 10 10 10 9 9 9 9 9 10 10
16 16 15 15 15 15 14 14 14 14 14 14 14 14 14 13 13 13 13 13 13 13 13 12 12 12 12 12 12 12 12 11 11 11 11 10 10 10 10 10 10 11 11 11
16 16 16 16 16 15 14 14 14 14 14 14 14 14 14 13 13 13 13 13 13 13 12 12 12 12 12 13 13 12 12 12 11 11 11 10 11 11 11 11 11 11 11 11
16 16 16 16 16 15 15 15 14 14 14 14 14 14 14 14 13 13 13 13 13 13 12 12 11 11 12 12 12 11 11 11 11 11 11 10 10 10 10 10 10 10 11 11
Wind_Direction
287 287 286 287 285 283 284 285 286 289 289 290 291 293 292 291 291 291 292 291 290 288 286 284 284 282 281 280 280 279 278 278 278 277 276 274 272 271 269 266 264 263 262 260
288 288 286 284 283 283 283 284 286 287 288 289 291 293 293 292 292 292 293 293 292 290 288 287 285 284 283 281 280 279 278 277 277 277 276 274 272 270 268 265 263 262 262 260
287 287 287 284 285 283 283 284 286 288 289 289 290 291 292 292 292 292 293 293 293 291 290 289 287 285 284 283 282 280 277 276 275 276 275 274 273 269 267 265 263 262 261 260
286 287 287 289 285 283 284 284 286 289 291 291 292 293 294 293 293 292 293 294 294 292 291 289 287 286 284 283 282 280 278 276 276 275 274 274 273 270 267 266 263 260 261 260
286 287 288 288 287 286 286 286 288 290 292 292 293 293 294 294 294 294 294 295 295 294 292 290 289 287 285 282 281 280 279 276 275 274 274 274 273 271 268 266 261 260 260 261
287 288 289 290 288 287 288 289 290 292 294 295 295 295 296 297 297 297 297 297 296 295 292 290 289 288 286 284 282 281 280 277 275 275 275 275 274 273 270 266 262 259 260 260
286 288 289 288 289 290 290 292 293 294 296 298 297 297 299 299 299 299 299 299 298 296 294 292 289 287 286 285 285 282 279 278 277 276 276 276 274 272 270 267 263 260 260 259
285 287 290 289 289 290 291 293 294 296 298 299 299 297 298 299 300 300 300 300 299 298 296 294 292 289 288 288 288 285 282 281 279 277 277 276 274 272 271 268 264 261 261 259
285 285 286 288 290 291 291 292 294 296 298 299 299 298 298 298 299 300 300 300 300 298 297 295 294 292 290 289 288 287 285 284 282 280 278 276 275 274 271 267 263 261 260 258
286 285 284 286 289 291 291 293 295 297 299 300 299 299 299 300 300 300 300 300 299 297 296 295 293 293 291 290 289 288 287 287 286 283 279 277 275 274 272 267 262 260 259 257
286 284 283 285 288 290 291 293 295 296 298 300 299 299 300 300 300 300 300 301 299 297 295 294 293 293 292 290 290 291 290 290 287 285 282 278 276 276 272 267 262 261 261 258
286 285 287 288 288 289 291 294 296 297 298 298 298 299 300 301 302 301 300 299 298 297 295 294 293 292 291 292 292 293 294 294 291 287 283 281 278 275 269 265 261 263 263 261
285 286 288 289 289 289 292 295 297 297 297 298 298 299 301 302 303 301 299 298 296 296 295 294 293 292 291 292 293 293 293 294 292 288 284 282 279 275 269 264 260 262 263 261
284 285 286 288 288 290 292 294 296 296 296 297 298 300 302 304 303 302 300 299 297 297 297 295 294 292 290 290 292 292 292 291 289 286 283 280 279 275 269 264 261 261 261 259
285 286 288 289 290 291 294 296 297 296 296 297 299 302 304 305 304 303 302 301 299 299 298 297 296 293 291 290 291 290 290 291 287 283 283 282 279 276 271 265 261 260 260 260
285 287 290 290 291 293 296 299 299 298 298 299 301 303 304 305 305 304 303 302 301 299 299 298 297 296 294 292 291 290 289 287 284 281 281 282 280 275 269 264 261 259 259 260
285 288 289 288 291 294 297 299 299 299 300 300 301 303 304 305 306 305 304 302 301 301 299 298 298 298 295 293 292 290 288 285 283 281 279 280 278 273 268 264 262 258 257 259
286 288 290 291 293 296 298 299 300 300 301 302 302 303 304 306 307 307 305 304 303 302 302 300 300 300 299 297 294 291 288 287 284 282 282 280 276 268 264 263 261 257 257 257
287 289 291 293 296 298 300 302 303 303 305 304 304 305 307 308 308 308 307 305 305 305 304 303 302 302 301 298 295 294 293 292 288 285 283 280 273 268 264 261 258 254 254 254
288 291 293 295 297 300 303 304 306 307 307 306 306 308 309 309 309 309 309 307 307 307 306 305 302 302 301 300 297 295 296 295 291 286 282 279 274 270 266 262 256 254 253 253
289 291 293 296 299 302 305 306 308 309 310 309 308 308 308 309 310 310 310 310 310 310 308 307 304 302 301 300 299 298 297 293 289 287 283 279 274 271 267 263 258 255 255 255
291 292 294 297 301 304 305 307 309 311 313 312 310 310 309 310 311 312 313 312 312 312 309 308 307 306 304 302 300 300 298 292 288 286 281 278 276 270 265 263 261 258 257 256
290 293 295 297 299 302 304 306 309 312 314 315 314 313 312 312 313 313 314 315 314 313 312 311 310 309 307 305 303 301 299 295 289 284 278 276 274 268 265 264 263 261 258 258
291 292 294 296 299 301 302 304 307 311 313 315 316 316 315 313 314 314 313 314 315 315 314 313 312 311 309 307 305 303 300 296 290 284 279 276 272 266 264 264 264 263 261 260
289 290 291 294 298 300 300 301 304 308 312 314 315 316 315 313 314 314 314 314 315 316 314 312 312 312 312 311 309 307 303 298 292 286 283 277 272 268 266 266 265 262 260 259
286 287 289 292 294 296 298 299 300 303 307 310 312 313 314 313 312 313 314 313 314 314 314 313 312 312 312 311 310 308 305 301 295 289 285 280 275 272 270 268 266 262 260 260
285 287 288 289 290 292 294 296 296 299 303 306 308 310 311 310 309 310 311 313 313 313 312 312 312 313 314 313 311 308 304 301 297 293 285 280 276 272 269 268 266 262 260 260
Height
5621 5618 5616 5615 5613 5611 5609 5607 5606 5605 5602 5601 5597 5594 5592 5589 5586 5584 5581 5578 5576 5573 5571 5569 5566 5564 5563 5561 5559 5557 5556 5554 5553 5552 5551 5550 5550 5549 5549 5549 5549 5550 5551 5552
5614 5611 5609 5607 5606 5604 5602 5600 5598 5596 5595 5593 5589 5587 5584 5581 5578 5576 5573 5571 5568 5565 5562 5560 5557 5555 5553 5551 5549 5547 5546 5545 5543 5542 5541 5540 5540 5539 5539 5539 5540 5540 5541 5541
5606 5604 5601 5600 5600 5597 5596 5594 5591 5589 5588 5585 5582 5579 5576 5573 5570 5568 5565 5562 5559 5556 5553 5550 5548 5546 5543 5542 5539 5537 5536 5535 5534 5533 5532 5531 5530 5530 5530 5530 5530 5531 5531 5532
5597 5596 5594 5596 5592 5590 5588 5587 5584 5582 5580 5577 5574 5571 5568 5565 5562 5559 5556 5553 5550 5547 5544 5541 5539 5536 5534 5532 5530 5528 5527 5526 5525 5524 5523 5522 5521 5521 5521 5520 5521 5521 5522 5522
5590 5588 5587 5588 5585 5582 5580 5579 5577 5574 5571 5569 5566 5563 5561 5557 5554 5551 5548 5544 5541 5538 5535 5532 5530 5527 5525 5523 5521 5519 5518 5517 5517 5516 5515 5514 5513 5512 5512 5511 5511 5512 5512 5513
5582 5580 5580 5581 5578 5574 5573 5571 5569 5566 5563 5561 5558 5555 5554 5550 5546 5542 5539 5536 5532 5529 5526 5523 5521 5518 5516 5514 5513 5511 5510 5509 5508 5507 5506 5506 5505 5504 5503 5502 5502 5503 5503 5504
5576 5573 5572 5572 5569 5567 5567 5565 5562 5559 5556 5553 5550 5548 5545 5542 5539 5535 5532 5528 5524 5521 5518 5515 5512 5510 5508 5507 5505 5503 5502 5501 5500 5499 5498 5497 5496 5495 5495 5494 5494 5494 5495 5496
5568 5566 5568 5564 5562 5561 5559 5557 5554 5551 5549 5546 5543 5540 5537 5534 5531 5528 5525 5521 5517 5514 5511 5508 5505 5503 5501 5500 5498 5496 5494 5493 5492 5491 5490 5489 5488 5488 5487 5486 5486 5486 5487 5488
5563 5563 5560 5557 5555 5553 5552 5550 5547 5545 5542 5539 5536 5533 5530 5527 5524 5521 5518 5514 5511 5507 5504 5502 5499 5497 5495 5493 5491 5489 5488 5486 5485 5483 5482 5481 5481 5480 5479 5479 5479 5479 5480 5481
5555 5555 5553 5551 5548 5547 5545 5543 5540 5538 5535 5532 5529 5526 5523 5520 5517 5514 5511 5507 5504 5501 5498 5496 5493 5491 5489 5487 5485 5483 5481 5479 5478 5476 5475 5474 5473 5472 5472 5471 5472 5472 5473 5474
5548 5547 5546 5544 5542 5540 5538 5536 5534 5531 5529 5526 5523 5520 5517 5514 5510 5507 5504 5501 5497 5495 5492 5489 5487 5485 5483 5481 5479 5477 5475 5473 5471 5469 5468 5467 5466 5465 5465 5465 5465 5466 5466 5467
5542 5540 5539 5538 5536 5534 5532 5530 5527 5525 5522 5519 5516 5513 5510 5507 5504 5500 5497 5494 5491 5488 5486 5483 5481 5479 5476 5474 5472 5470 5468 5466 5464 5463 5461 5460 5459 5459 5458 5458 5459 5459 5460 5460
5535 5534 5532 5531 5529 5527 5525 5523 5521 5518 5515 5513 5510 5506 5503 5500 5497 5494 5490 5487 5484 5482 5479 5476 5474 5472 5470 5468 5466 5464 5462 5460 5458 5457 5455 5454 5453 5452 5452 5452 5452 5453 5453 5454
5528 5527 5526 5524 5522 5521 5519 5516 5514 5511 5509 5506 5503 5500 5497 5494 5490 5487 5484 5481 5478 5475 5473 5470 5468 5466 5464 5462 5460 5458 5456 5454 5452 5451 5449 5448 5447 5446 5446 5446 5446 5447 5447 5448
5522 5521 5520 5518 5516 5514 5512 5510 5508 5505 5502 5499 5496 5494 5491 5487 5484 5481 5478 5475 5472 5469 5467 5464 5462 5460 5457 5455 5453 5452 5450 5448 5446 5445 5444 5442 5441 5440 5440 5440 5441 5441 5442 5443
5516 5515 5513 5512 5510 5508 5506 5504 5501 5499 5496 5493 5490 5487 5484 5481 5478 5475 5472 5469 5466 5463 5461 5458 5456 5453 5451 5449 5447 5445 5444 5442 5441 5439 5438 5437 5436 5435 5435 5435 5436 5436 5437 5437
5510 5509 5508 5506 5504 5502 5500 5498 5495 5493 5490 5487 5484 5481 5478 5475 5472 5469 5465 5463 5460 5457 5455 5452 5450 5447 5445 5443 5441 5439 5438 5437 5435 5434 5433 5432 5431 5431 5430 5431 5431 5431 5432 5433
5504 5503 5502 5500 5498 5496 5494 5492 5489 5487 5484 5481 5478 5475 5472 5469 5466 5463 5460 5457 5454 5452 5449 5447 5445 5443 5440 5438 5436 5435 5433 5432 5431 5430 5429 5428 5427 5427 5427 5427 5427 5427 5428 5429
5498 5497 5496 5494 5493 5491 5488 5486 5484 5481 5478 5476 5473 5470 5467 5463 5460 5458 5455 5452 5450 5448 5445 5442 5440 5438 5436 5434 5432 5431 5429 5428 5427 5426 5425 5424 5423 5423 5423 5423 5423 5424 5424 5425
5493 5492 5491 5489 5487 5486 5483 5481 5478 5476 5473 5470 5468 5465 5462 5459 5456 5453 5451 5448 5446 5443 5441 5438 5436 5434 5432 5430 5428 5427 5426 5425 5423 5422 5422 5421 5420 5420 5420 5420 5420 5421 5421 5422
5488 5487 5486 5484 5482 5481 5478 5476 5474 5471 5468 5466 5463 5460 5458 5455 5452 5450 5447 5445 5442 5439 5437 5435 5432 5430 5428 5427 5425 5424 5422 5421 5420 5419 5419 5418 5418 5417 5417 5417 5417 5418 5418 5419
5483 5482 5481 5479 5477 5475 5473 5471 5469 5467 5464 5462 5459 5456 5453 5451 5448 5446 5443 5441 5439 5436 5434 5431 5429 5427 5425 5424 5422 5421 5419 5418 5417 5416 5416 5415 5415 5415 5415 5415 5415 5415 5415 5416
5479 5477 5476 5474 5473 5471 5469 5467 5465 5463 5460 5458 5455 5452 5450 5447 5445 5442 5440 5438 5435 5433 5430 5428 5426 5424 5422 5421 5419 5418 5416 5415 5414 5413 5413 5413 5412 5412 5412 5412 5413 5413 5413 5413
5474 5472 5471 5469 5468 5466 5464 5463 5461 5458 5456 5454 5451 5449 5446 5444 5441 5439 5437 5435 5432 5430 5428 5425 5423 5422 5420 5418 5416 5415 5413 5412 5411 5410 5410 5410 5410 5410 5410 5410 5410 5410 5410 5410
5468 5467 5466 5465 5463 5461 5460 5458 5456 5454 5452 5450 5448 5445 5443 5440 5438 5436 5434 5432 5429 5427 5425 5423 5421 5419 5417 5415 5413 5412 5410 5409 5408 5407 5407 5406 5406 5406 5406 5406 5406 5406 5407 5407
5463 5462 5461 5459 5458 5457 5455 5453 5452 5450 5448 5446 5444 5442 5439 5437 5435 5433 5431 5429 5426 5424 5422 5420 5418 5416 5414 5412 5411 5409 5407 5405 5404 5404 5403 5403 5403 5403 5403 5403 5403 5403 5403 5404
5457 5456 5455 5454 5453 5451 5450 5448 5447 5445 5444 5442 5440 5438 5436 5433 5431 5429 5428 5425 5423 5421 5419 5417 5415 5413 5412 5410 5408 5406 5404 5403 5402 5401 5400 5400 5400 5400 5400 5400 5400 5400 5400 5400